Regional Weather Roundup
Issued by NWS

Home | Current Version | Previous Version | Graphics & Text | Print | Product List | Glossary On
Versions: 1 2 3 4 5 6 7 8 9 10 11 12 13 14 15 16 17 18 19 20 21 22 23 24 25 26 27 28 29 30 31 32 33 34 35 36 37 38 39 40 41 42 43 44 45 46 47 48 49 50
000
ASUS43 KLSX 211507
RWRMO

WEATHER SUMMARY FOR MISSOURI
NATIONAL WEATHER SERVICE SPRINGFIELD MO
900 AM CST FRI NOV 21 2014

NOTE: "FAIR" INDICATES FEW OR NO CLOUDS BELOW 12,000 FEET WITH NO
       SIGNIFICANT WEATHER AND/OR OBSTRUCTIONS TO VISIBILITY.
       CURRENT SKY AND/OR WEATHER CONDITIONS ARE NOT AVAILABLE FOR
       CHILLICOTHE AND FARMINGTON.

MOZ001>031-035>038-043-044-053-054-211600-
...NORTHERN AND WESTERN MISSOURI...

CITY           SKY/WX    TMP DP  RH WIND       PRES   REMARKS
KANSAS CTY INT PTSUNNY   29  18  63 E15       30.22F WCI  18
KANSAS C DTWN  PTSUNNY   32  18  56 E9        30.24F WCI  24
LEE`S SUMMIT   MOSUNNY   32  20  61 E10       30.23F WCI  24
ST JOSEPH      SUNNY     26  17  68 E5        30.25F WCI  20
CHILLICOTHE      N/A     26  15  63 SE7       30.32S WCI  18
KIRKSVILLE     SUNNY     24  16  71 SE14      30.34S WCI  12

$$
MOZ066>068-077>081-088>096-101>105-211600-
...SOUTHWEST MISSOURI...

CITY           SKY/WX    TMP DP  RH WIND       PRES   REMARKS
SPRINGFIELD    CLOUDY    44  25  47 SE16G29   30.23R
JOPLIN         CLOUDY    44  38  79 SE10      30.19R

$$
MOZ032>034-039>042-045>050-055>058-069>072-211600-
...CENTRAL MISSOURI...

CITY           SKY/WX    TMP DP  RH WIND       PRES   REMARKS
COLUMBIA       SUNNY     30  17  58 SE16G23   30.33R WCI  19
JEFFERSON CITY SUNNY     31  18  58 E9G17     30.35S WCI  23
ROLLA          PTSUNNY   32  19  58 SE22G28   30.31R WCI  19
SEDALIA        MOSUNNY   31  20  63 SE14      30.29R WCI  21
WARRENSBURG    MOSUNNY   32  21  64 E9        30.26S WCI  24
OSAGE BEACH    CLOUDY    34  21  60 SE10      30.30S WCI  26

$$
MOZ051-052-059>065-211600-
...EAST CENTRAL MISSOURI...

CITY           SKY/WX    TMP DP  RH WIND       PRES   REMARKS
ST LOUIS INTL  MOSUNNY   30  15  53 E14       30.43R WCI  19
SPIRIT OF STL  MOSUNNY   29  15  56 SE9       30.41S WCI  20
ST CHARLES     SUNNY     27  18  69 E14       30.44R WCI  16

$$
MOZ072>076-082>087-097>100-106>115-211600-
...SOUTH CENTRAL AND SOUTHEAST MISSOURI...

CITY           SKY/WX    TMP DP  RH WIND       PRES   REMARKS
CAPE GIRARDEAU MOSUNNY   36  21  54 E12       30.43S WCI  28
FARMINGTON     SUNNY     30  21  69 E7        30.41R WCI  23
POPLAR BLUFF   PTSUNNY   37  23  56 MISG      30.39S
WEST PLAINS    CLOUDY    35  23  61 E9        30.32R WCI  28

$$



USA.gov is the U.S. government's official web portal to all federal, state and local government web resources and services.